sat.trackr.live / text

‹ back to catalog

STARLINK-33696

NORAD 63463 · 2025-070D

PAYLOAD ACTIVE UNKNOWN

§ Identity

Operator
Country
US
Launch date
2025-04-06
Launch site
AFETR
Launch vehicle
Mass (kg)
RCS (m²)

Purposes: comms

External: N2YO · Heavens-Above · Gunter

§ Orbital elements

Epoch: 2026-05-25T04:09:01.013760Z

Period
94.27 min
Inclination
43.0022°
Eccentricity
0.0001459
Mean motion
15.27589989 rev/d
Perigee alt
482.0 km
Apogee alt
484.0 km
Semi-major
6,861.2 km
B*
4.4337e-4
RAAN
187.8626°
Arg perigee
266.4420°
Mean anomaly
93.6265°
Rev number
6,467

§ Raw data

STARLINK-336961 63463U 25070D   26145.17292840  .00011962  00000+0  44337-3 0  99992 63463  43.0022 187.8626 0001459 266.4420  93.6265 15.27589989 64673

JSON: /api/v1/satellites/63463 · /tle

For live sub-satellite position, see the globe view (requires WebGL).

§ Visibility from observer

Set your observer location to see the next 7 days of passes ≥ 10°. The values pass through the URL so the page stays shareable.

No JS? Fill the form by hand. The geolocation button needs JavaScript.